Tracking 19831 objects as of 24-Aug-2019
HD Live streaming from Space Station
objects crossing your sky now

RADUGA 2

Track RADUGA 2 now!
RADUGA 2 is classified as:


NORAD ID: 9416
Int'l Code: 1976-092A
Perigee: 35,681.4 km
Apogee: 35,920.4 km
Inclination: 9.6 °
Period: 1,436.5 minutes
Semi major axis: 42171 km
RCS: 0.1428 m2 (medium)
Launch date: September 11, 1976
Source: Commonwealth of Independent States (former USSR) (CIS)
Launch site: TYURATAM MISSILE AND SPACE COMPLEX (TTMTR)
aabbcc
Your satellite tracking list
Your tracking list is empty




NASA's NSSDC Master Catalog

Two Line Element Set (TLE):
1  9416U 76092A   19234.87495491 -.00000051  00000-0  00000+0 0  9996
2  9416   9.5876 304.1341 0028335 326.2267  87.5829  1.00246180104367
Source of the keplerian elements: AFSPC